FW9598 Weather Reports


time (UTC)temp
C
wind
direction
speed
KPH
gust
KPH
rain 1hr
cm
rain 24hr
cm
rain mn
cm
humidity
%
barometer
mb
20260506170033 17 146 1.6 4.8 0.00 0.00 0.00 82 1022.5
20260506165029 16 292 0.0 3.2 0.00 0.00 0.00 82 1022.4
20260506164027 16 276 1.6 4.8 0.00 0.00 0.00 84 1022.5
20260506163024 16 207 1.6 3.2 0.00 0.00 0.00 86 1022.5
20260506162020 15 0.0 0.0 0.00 0.00 0.00 86 1022.5
20260506161017 15 262 1.6 4.8 0.00 0.00 0.00 86 1022.5
20260506160034 15 0.0 0.0 0.00 0.00 0.00 87 1022.5
20260506155029 15 304 0.0 3.2 0.00 0.00 0.00 87 1022.6
20260506154047 14 305 1.6 3.2 0.00 0.00 0.00 88 1022.5
20260506153023 14 305 1.6 3.2 0.00 0.00 0.00 88 1022.6
20260506152019 14 328 0.0 1.6 0.00 0.00 0.00 88 1022.5
20260506151036 13 329 1.6 3.2 0.00 0.00 0.00 89 1022.4
20260506150033 13 339 3.2 6.4 0.00 0.00 0.00 89 1022.5
20260506145029 13 295 0.0 3.2 0.00 0.00 0.00 89 1022.5
20260506144147 13 319 0.0 4.8 0.00 0.00 0.00 89 1022.4
20260506143023 13 0.0 0.0 0.00 0.00 0.00 89 1022.4
20260506142019 13 0.0 0.0 0.00 0.00 0.00 89 1022.2
20260506141016 13 0.0 0.0 0.00 0.00 0.00 89 1022.1
20260506140033 13 0.0 0.0 0.00 0.00 0.00 89 1022.0
20260506135030 13 0.0 0.0 0.00 0.00 0.00 89 1022.1
20260506134026 13 302 0.0 1.6 0.00 0.00 0.00 89 1021.9
20260506133023 13 0.0 0.0 0.00 0.00 0.00 89 1021.9
20260506132019 13 0.0 0.0 0.00 0.00 0.00 89 1021.8
20260506131016 13 0.0 0.0 0.00 0.00 0.00 89 1021.7
20260506130033 13 0.0 0.0 0.00 0.00 0.00 89 1021.7
20260506125030 13 0.0 0.0 0.00 0.00 0.00 88 1021.7
20260506124047 13 0.0 0.0 0.00 0.00 0.00 88 1021.6
20260506123044 13 0.0 0.0 0.00 0.00 0.00 88 1021.6
20260506122020 13 0.0 0.0 0.00 0.00 0.00 88 1021.6
20260506121017 13 0.0 0.0 0.00 0.00 0.00 88 1021.5
20260506120033 13 0.0 0.0 0.00 0.00 0.00 88 1021.6
20260506115031 13 288 1.6 1.6 0.00 0.00 0.00 88 1021.4
20260506114027 13 290 0.0 3.2 0.00 0.00 0.00 88 1021.3
20260506113044 13 341 0.0 1.6 0.00 0.00 0.00 88 1021.3
20260506112020 13 343 0.0 3.2 0.00 0.00 0.00 88 1021.2
20260506111017 13 0.0 0.0 0.00 0.00 0.00 88 1021.2
20260506110054 13 0.0 0.0 0.00 0.00 0.00 88 1021.1
20260506105031 13 346 0.0 3.2 0.00 0.00 0.00 88 1021.1
20260506104028 13 0.0 0.0 0.00 0.00 0.00 87 1020.9
20260506103025 13 0.0 0.0 0.00 0.00 0.00 87 1021.0
20260506102122 13 0.0 0.0 0.00 0.00 0.00 87 1020.9
20260506101018 13 349 0.0 1.6 0.00 0.00 0.00 87 1020.9
20260506100035 13 349 0.0 1.6 0.00 0.00 0.00 87 1020.9
20260506095052 13 0.0 0.0 0.00 0.00 0.00 87 1020.9
20260506094029 13 0.0 0.0 0.00 0.00 0.00 87 1020.9
20260506093026 13 0.0 0.0 0.00 0.00 0.00 87 1021.0
20260506092023 13 0.0 0.0 0.00 0.00 0.00 87 1020.9
20260506091019 13 349 0.0 3.2 0.00 0.00 0.00 87 1021.0
20260506090016 13 339 0.0 6.4 0.00 0.00 0.00 86 1021.0
20260506085033 13 352 1.6 3.2 0.00 0.00 0.00 86 1021.0
20260506084029 13 329 1.6 6.4 0.00 0.00 0.00 86 1021.0
20260506083027 13 334 1.6 4.8 0.00 0.00 0.00 86 1020.9
20260506082023 13 318 1.6 3.2 0.00 0.00 0.00 86 1020.9
20260506081020 13 327 1.6 3.2 0.00 0.00 0.00 86 1020.9
20260506073027 13 315 1.6 6.4 0.00 0.00 0.00 85 1020.6
20260506072024 13 336 0.0 1.6 0.00 0.00 0.00 84 1020.4
20260506071020 13 342 1.6 6.4 0.00 0.00 0.00 84 1020.4
20260506062025 13 339 1.6 6.4 0.00 0.00 0.00 83 1019.9
20260506061021 13 342 1.6 3.2 0.00 0.00 0.00 83 1019.9
20260506051022 13 253 0.0 1.6 0.00 0.00 0.00 83 1019.7
20260506045035 14 253 0.0 1.6 0.00 0.00 0.00 82 1019.5
20260506044031 14 0.0 0.0 0.00 0.00 0.00 82 1019.3
20260506042025 14 0.0 0.0 0.00 0.00 0.00 82 1019.1
20260506041022 14 0.0 0.0 0.00 0.00 0.00 82 1019.1
20260506040018 14 0.0 0.0 0.00 0.00 0.00 81 1018.9
20260506035035 14 243 0.0 3.2 0.00 0.00 0.00 82 1018.9
20260506034052 14 256 0.0 3.2 0.00 0.00 0.00 81 1018.5
20260506033029 14 0.0 0.0 0.00 0.00 0.00 81 1018.5
20260506032025 14 208 0.0 3.2 0.00 0.00 0.00 80 1018.3
20260506031022 14 185 1.6 6.4 0.00 0.00 0.00 80 1018.1
20260506030019 14 253 0.0 3.2 0.00 0.00 0.00 80 1018.0
20260506025036 14 244 1.6 4.8 0.00 0.00 0.00 80 1018.0
20260506024032 14 290 1.6 4.8 0.00 0.00 0.00 80 1018.0
20260506023029 15 256 3.2 12.9 0.00 0.00 0.00 80 1017.8
20260506022046 15 253 1.6 6.4 0.00 0.00 0.00 79 1017.7
20260506021023 15 236 3.2 11.3 0.00 0.00 0.00 79 1017.6
20260506020020 15 239 4.8 11.3 0.00 0.00 0.00 79 1017.5
20260506015017 15 211 4.8 11.3 0.00 0.00 0.00 78 1017.4
20260506014033 15 256 3.2 9.7 0.00 0.00 0.00 78 1017.3
20260506013030 16 249 3.2 14.5 0.00 0.00 0.00 78 1017.2
20260506012026 16 241 4.8 16.1 0.00 0.00 0.00 78 1017.1
20260506011023 16 223 3.2 14.5 0.00 0.00 0.00 78 1017.1
20260506010040 16 255 3.2 14.5 0.00 0.00 0.00 78 1017.0
20260506005017 16 218 3.2 12.9 0.00 0.00 0.00 79 1016.9
20260506004034 16 215 3.2 9.7 0.00 0.00 0.00 79 1016.9
20260506003031 16 235 3.2 6.4 0.00 0.00 0.00 79 1016.9
20260506002027 16 236 1.6 6.4 0.00 0.00 0.00 79 1016.9
20260506001024 16 249 3.2 11.3 0.00 0.00 0.00 78 1016.7
20260506000021 16 252 3.2 11.3 0.00 0.00 0.00 78 1016.8
20260505235018 16 191 3.2 12.9 0.00 0.00 0.00 78 1016.7
20260505234035 17 224 1.6 6.4 0.00 0.00 0.00 77 1016.7
20260505233032 17 224 4.8 14.5 0.00 0.00 0.00 77 1016.7
20260505232028 17 213 3.2 11.3 0.00 0.00 0.00 76 1016.6
20260505231025 17 209 4.8 16.1 0.00 0.00 0.00 76 1016.6
20260505230021 18 212 4.8 12.9 0.00 0.00 0.00 76 1016.6
20260505225018 18 196 3.2 11.3 0.00 0.00 0.00 75 1016.6
20260505224035 18 222 4.8 11.3 0.00 0.00 0.00 75 1016.7
20260505223032 18 233 4.8 11.3 0.00 0.00 0.00 75 1016.7
20260505222028 18 282 1.6 3.2 0.00 0.00 0.00 75 1016.8
20260505221025 18 337 3.2 9.7 0.00 0.00 0.00 75 1016.9
20260505220022 18 360 1.6 6.4 0.00 0.00 0.00 75 1016.8
20260505215019 18 290 1.6 4.8 0.00 0.00 0.00 75 1016.9
20260505214016 18 280 3.2 6.4 0.00 0.00 0.00 75 1017.1
20260505213033 18 346 1.6 6.4 0.00 0.00 0.00 76 1017.0
20260505212049 18 345 1.6 12.9 0.00 0.00 0.00 77 1017.1
20260505211026 18 313 1.6 4.8 0.00 0.00 0.00 77 1017.2
20260505210022 18 344 0.0 1.6 0.00 0.00 0.00 76 1017.2
20260505205020 17 316 3.2 9.7 0.00 0.00 0.00 79 1017.3
20260505204017 17 300 1.6 6.4 0.00 0.00 0.00 80 1017.3
20260505203113 17 307 1.6 3.2 0.00 0.00 0.00 80 1017.4
20260505202050 17 316 1.6 4.8 0.00 0.00 0.00 80 1017.5
20260505201026 16 294 1.6 6.4 0.00 0.00 0.00 81 1017.4
20260505200023 16 275 1.6 3.2 0.00 0.00 0.00 82 1017.6
20260505195020 16 337 1.6 9.7 0.00 0.00 0.00 82 1017.5
20260505194017 16 347 1.6 4.8 0.00 0.00 0.00 83 1017.6
20260505193034 16 347 1.6 3.2 0.00 0.00 0.00 82 1017.7
20260505192030 16 308 1.6 6.4 0.00 0.00 0.00 84 1017.6
20260505191027 16 339 3.2 9.7 0.00 0.00 0.00 85 1017.5
20260505190024 16 57 3.2 4.8 0.00 0.00 0.00 87 1017.5
20260505185021 16 357 0.0 3.2 0.00 0.00 0.00 88 1017.5
20260505184017 15 350 3.2 9.7 0.00 0.00 0.00 87 1017.5
20260505183034 15 332 1.6 4.8 0.00 0.00 0.00 86 1017.6
20260505182031 15 316 3.2 6.4 0.00 0.00 0.00 89 1017.7
20260505181028 15 335 4.8 12.9 0.00 0.00 0.00 90 1017.6
20260505180024 15 334 4.8 9.7 0.00 0.00 0.00 91 1017.4
20260505175042 14 324 3.2 11.3 0.00 0.00 0.00 92 1017.5
20260505174018 14 342 1.6 6.4 0.00 0.00 0.00 93 1017.5
20260505173035 14 323 3.2 12.9 0.00 0.00 0.00 94 1017.4
20260505172032 13 306 1.6 4.8 0.00 0.00 0.00 95 1017.3
20260505171029 13 264 0.0 4.8 0.00 0.00 0.00 95 1017.3